Miscellaneous Local Product
Issued by NWS Hastings, NE

Home | Current Version | Previous Version | Graphics & Text | Print | Product List | Glossary On
Versions: 1 2 3 4 5 6 7 8 9 10 11 12 13 14 15 16 17 18 19 20 21 22 23 24 25 26 27 28 29 30 31 32 33 34 35 36 37 38 39 40 41 42 43 44 45 46 47 48 49 50
000
AXUS43 KGID 051002
MISGRI

GID CWA HOURLY WEATHER ROUNDUP
NATIONAL WEATHER SERVICE HASTINGS NE
400 AM CST MON DEC 05 2016

NOTE: "FAIR" INDICATES FEW OR NO CLOUDS BELOW 12,000 FEET WITH NO
SIGNIFICANT WEATHER AND/OR OBSTRUCTIONS TO VISIBILITY.

...SOUTH CENTRAL NEBRASKA...

CITY           SKY/WX    TMP DP  RH WIND       PRES   REMARKS
GRAND ISLAND   PTCLDY    38  26  62 S18       29.71F WCI  28
HASTINGS       MOCLDY    37  26  64 S9        29.74F WCI  30
KEARNEY        CLOUDY    36  21  55 S13       29.70F WCI  27
ORD            CLOUDY    37  20  50 S7        29.65F WCI  32
YORK           PTCLDY    34  28  80 S15       29.76F WCI  24
AURORA         PTCLDY    35  28  75 S13       29.73F WCI  26
LEXINGTON      CLOUDY    37  21  52 CALM      29.69F
HOLDREGE       CLOUDY    36  23  61 S10       29.70F WCI  28
HEBRON         PTCLDY    36  28  72 S13       29.79F WCI  27

...NEBRASKA PANHANDLE...

CITY           SKY/WX    TMP DP  RH WIND       PRES   REMARKS
CHADRON        CLOUDY    44  22  41 SW12      29.52F
ALLIANCE       CLOUDY    39  20  46 S7        29.56F WCI  34
SCOTTSBLUFF    CLOUDY    40  20  44 NW3       29.57F
SIDNEY         CLOUDY    33  16  49 SW12      29.61F WCI  24

...WESTERN AND NORTH CENTRAL NEBRASKA...

CITY           SKY/WX    TMP DP  RH WIND       PRES   REMARKS
VALENTINE      PTCLDY    34  18  52 VRB3      29.57F
AINSWORTH      CLOUDY    37  20  51 SW9       29.58F WCI  30
ONEILL         CLOUDY    38  22  52 SW12      29.62F WCI  30
BROKEN BOW     CLOUDY    35  21  56 S9        29.65F WCI  28
IMPERIAL       CLOUDY    30  19  63 N5        29.64F WCI  25
NORTH PLATTE   CLOUDY    32  21  64 CALM      29.67S
MCCOOK         CLOUDY    34  19  54 SW3       29.68F

...EASTERN NEBRASKA...

CITY           SKY/WX    TMP DP  RH WIND       PRES   REMARKS
NORFOLK        CLEAR     36  26  67 S23G31    29.68F WCI  24
SO SIOUX CITY  CLOUDY    32  29  88 SE12      29.74F WCI  23
TEKAMAH        CLOUDY    31  28  89 SE10      29.79F WCI  22
COLUMBUS       CLOUDY    36  27  69 S10       29.74F WCI  28
ALBION         CLOUDY    34  26  73 S7        29.70F WCI  28
OMAHA EPPLEY   CLOUDY    32  28  85 SE8       29.83F WCI  25
OFFUTT AFB     PTCLDY    31  31 100 E7        29.82F WCI  24
MILLARD        PTCLDY    32  29  92 SE5       29.81F WCI  27
LINCOLN        PTCLDY    34  30  85 S8        29.81F WCI  27
NEBRASKA CITY  PTCLDY    35  31  86 S10       29.83F WCI  27
BEATRICE       CLOUDY    33  30  88 S8        29.82F WCI  26
FALLS CITY     CLEAR     35  31  85 S7        29.87F WCI  29

...NORTHERN KANSAS...

CITY           SKY/WX    TMP DP  RH WIND       PRES   REMARKS
GOODLAND       CLOUDY    30  16  56 SW12      29.63F WCI  20
HILL CITY      CLOUDY    37  24  59 W7        29.73F WCI  32
NORTON         SUNNY     37  19  48 S14       29.67F WCI  29
PHILLIPSBURG   CLEAR     37  27  65 S6        29.74F WCI  33
SMITH CENTER   CLEAR     28  25  86 SE7       29.77F WCI  21
BELOIT         CLEAR     30  27  86 SE6       29.79F WCI  24
HAYS           CLOUDY    37  25  61 S14       29.77F WCI  28
RUSSELL        CLEAR     35  26  69 S13       29.77F WCI  26
CONCORDIA      CLEAR     37  28  70 S14       29.81F WCI  28
SALINA         CLEAR     34  29  82 S13       29.86F WCI  25
TOPEKA         CLEAR     30  27  88 SE3       29.92S FOG



USA.gov is the U.S. government's official web portal to all federal, state and local government web resources and services.